[[{"header":{"parameterUnit":"m.s-1","parameterCategory":1,"la1":30.2991,"la2":30.254,"lo1":-89.0895,"lo2":-89.0444,"dy":0.0017,"dx":0.0017,"nx":28,"ny":28,"refTime":"2024-07-30T09:00:00:Z","depth":0,"parameterNumber":2,"parameterNumberName":"U-component_of_WINDS"},"data":[0,0,0,0,0,0,0,0,0,0,0,0,0,0,0,0,0,0,0,0,0,0,0,0,0,0,0,0,0,0,0,0,0,0,0,0,0,0,0,0,0,0,0,0,0,0,0,0,0,0,0,0,0,0,0,0,0,0,4.9633,4.9634,0,4.9704,4.9705,4.9706,4.9606,4.9603,4.9599,4.9596,4.9667,4.9672,4.9677,0,0,0,0,0,0,0,0,0,0,0,0,0,4.9408,4.9413,4.9633,4.9634,4.9635,4.9704,4.9705,4.9706,4.9607,4.9603,4.9598,4.9594,4.9665,4.9671,4.9677,0,0,0,0,0,0,0,0,0,0,0,0,0,4.9495,4.9414,4.9633,4.9594,4.9591,4.9704,4.9705,4.9706,4.9608,4.9603,4.9597,4.9592,4.9663,4.967,4.9678,4.9832,0,0,4.9702,4.9705,0,0,0,0,0,0,0,0,4.949,4.9504,4.9599,4.9597,4.9594,4.9641,4.9651,4.9748,4.9609,4.9601,4.9596,4.959,4.9662,4.967,4.9695,4.9835,4.9838,4.9702,4.9707,4.971,4.9713,0,0,0,0,0,0,0,4.9485,4.95,4.9661,4.96,4.9597,4.9572,4.9578,4.9669,4.9661,4.9602,4.9595,4.9605,4.966,4.9687,4.9695,4.9839,4.9702,4.9709,4.9714,4.9717,5.0105,5.0111,0,0,0,0,0,0,4.9484,4.9496,4.9659,4.9663,4.9528,4.958,4.9587,4.9631,4.9659,4.9659,4.9609,4.96,4.9677,4.9687,4.9698,4.9876,4.971,4.9718,4.9722,5.01,5.0107,5.0113,0,0,0,0,0,0,4.9479,4.9499,4.9656,4.9577,4.9595,4.9589,4.964,4.9635,4.9662,4.9665,4.9662,4.9639,4.9673,4.9687,4.9798,4.9877,4.9721,4.9728,5.0093,5.0102,5.011,5.0237,0,0,0,0,0,0,4.9473,4.9498,4.9557,4.958,4.96,4.9757,4.9644,4.964,4.9676,4.9665,4.9692,4.9692,4.967,4.9787,4.9806,4.9885,4.9734,5.0086,5.0097,5.0107,5.0225,5.0248,5.0268,0,0,0,0,0,4.9465,4.9591,4.9561,4.9581,4.9674,4.9762,4.9773,4.9746,4.9683,4.9742,4.9743,4.9691,4.9867,4.98,4.982,4.9903,5.0081,5.0094,5.0106,5.0216,5.0244,5.0268,0,0,0,0,0,0,4.9577,4.9593,4.956,4.9696,4.9728,4.9745,4.9818,4.9777,4.9828,4.9815,4.9778,4.9785,4.9904,4.9915,4.984,5.0051,4.9963,4.998,5.0039,5.0066,5.0087,5.0081,4.9741,0,0,0,0,0,4.9618,4.9689,4.9698,4.9817,4.9835,4.9824,4.9861,4.9838,4.9869,4.9882,4.9891,4.9923,4.9985,5.0027,5.0084,5.0227,5.023,5.0294,5.0315,5.0333,5.0347,5.042,5.0448,5.0155,5.0154,5.0154,0,0,4.9702,4.9719,4.9766,4.984,4.9862,4.9934,4.9836,4.9918,4.997,4.9894,4.9999,5.0008,5.0041,5.0168,5.0224,5.018,5.0429,5.0349,5.0363,5.0368,5.0436,5.0464,5.0489,5.0163,5.0162,5.016,0,0,4.9892,4.9914,5.0014,5.0038,5.0073,5.0064,5.0089,5.0111,5.0113,5.0219,5.0162,5.0224,5.0333,5.0357,5.0384,5.0583,5.0535,5.0603,5.0713,5.0785,5.0808,5.0828,5.0896,5.0921,5.0618,5.0618,5.0618,0,4.9992,5.0099,5.007,5.0155,5.0188,5.0123,5.0223,5.0247,5.0299,5.0323,5.0273,5.0406,5.0424,5.0554,5.0603,5.0628,5.0652,5.0598,5.0808,5.0828,5.0846,5.0909,5.0935,5.0626,5.0625,5.0624,5.0623,0,5.0219,5.0295,5.0371,5.0422,5.0464,5.0557,5.0539,5.0585,5.0558,5.0555,5.0661,5.0681,5.0739,5.0769,5.0744,5.0896,5.0867,5.0814,5.0723,5.0882,5.0941,5.0965,5.0637,5.0634,5.0632,5.063,0,0,5.0479,5.0513,5.0541,5.0562,5.0596,5.0653,5.0742,5.0799,5.0838,5.0876,5.0947,5.104,5.099,5.1021,5.0997,5.1061,5.1212,5.0999,5.0999,5.1035,5.1377,5.1414,5.1443,5.1183,5.1187,5.1191,5.1373,0,5.0666,5.0819,5.0795,5.0942,5.1009,5.0949,5.1025,5.1053,5.1052,5.1108,5.1107,5.1172,5.1103,5.1121,5.1181,5.1181,5.128,5.1168,5.1245,5.1249,5.1236,5.1474,5.1515,5.1685,5.1396,5.14,5.1403,0,5.0904,5.095,5.1104,5.1125,5.1152,5.1222,5.1271,5.1327,5.1356,5.1351,5.1385,5.135,5.1436,5.1347,5.1463,5.1388,5.1418,5.1423,5.1429,5.1432,5.1333,5.1481,5.174,5.1764,5.144,5.1437,5.1434,0,5.1074,5.1175,5.1279,5.13,5.1328,5.1377,5.1391,5.1416,5.1451,5.1495,5.1517,5.157,5.1598,5.164,5.1619,5.1557,5.1738,5.1648,5.1733,5.1734,5.1771,5.1769,5.2035,5.1798,5.1797,5.1797,5.1796,0,5.1282,5.1378,5.1355,5.1419,5.1524,5.1495,5.1599,5.1605,5.1628,5.169,5.1642,5.1701,5.1672,5.1729,5.1714,5.181,5.1825,5.1821,5.1815,5.1823,5.1823,5.184,5.1826,5.1803,5.1802,5.1801,5.1799,0,5.1489,5.1478,5.1587,5.1604,5.1611,5.1687,5.1701,5.1759,5.1755,5.1835,5.1852,5.1844,5.1909,5.1893,5.1964,5.1953,5.2074,5.2055,5.2063,5.2057,5.2142,5.2133,5.2425,5.2461,5.2204,5.2207,5.2209,0,5.1621,5.1693,5.1718,5.1756,5.1774,5.1837,5.1873,5.1847,5.1886,5.1925,5.1978,5.2039,5.2085,5.219,5.219,5.2243,5.2223,5.2322,5.223,5.2235,5.2219,5.2214,5.2219,5.2339,5.2342,5.2344,5.2346,0,5.1855,5.1846,5.19,5.1952,5.1996,5.2036,5.2071,5.2105,5.2082,5.2128,5.2193,5.2229,5.2301,5.236,5.2408,5.242,5.2379,5.2375,5.2397,5.2404,5.2405,5.2402,5.2109,5.2368,5.2366,5.2364,5.2363,5.2362,5.2026,5.2086,5.2112,5.2173,5.2197,5.223,5.2285,5.2288,5.2342,5.2398,5.238,5.2454,5.2479,5.254,5.2559,5.2615,5.2577,5.261,5.2617,5.2624,5.2633,5.2399,5.2624,5.2623,5.2623,5.2622,5.2622,0,5.2254,5.2268,5.2325,5.2375,5.2423,5.2381,5.2417,5.2459,5.2525,5.2553,5.26,5.2673,5.273,5.2735,5.2788,5.2832,5.2813,5.2846,5.284,5.2843,5.2666,5.264,5.2859,5.2859,5.2859,5.2859,5.2859,5.2859,5.2378,5.2476,5.247,5.2579,5.2592,5.2664,5.2688,5.2718,5.274,5.2824,5.2871,5.2875,5.2892,5.2946,5.2996,5.2995,5.3015,5.3055,5.3047,5.288,5.2856,5.2834,5.2809,5.306,5.3061,5.3219,5.322,5.3221]},{"header":{"parameterUnit":"m.s-1","parameterCategory":1,"la1":30.2991,"la2":30.254,"lo1":-89.0895,"lo2":-89.0444,"dy":0.0017,"dx":0.0017,"nx":28,"ny":28,"refTime":"2024-07-30T09:00:00:Z","depth":0,"parameterNumber":3,"parameterNumberName":"V-component_of_WINDS"},"data":[0,0,0,0,0,0,0,0,0,0,0,0,0,0,0,0,0,0,0,0,0,0,0,0,0,0,0,0,0,0,0,0,0,0,0,0,0,0,0,0,0,0,0,0,0,0,0,0,0,0,0,0,0,0,0,0,0,0,2.6645,2.6646,0,2.6742,2.6743,2.6744,2.6731,2.673,2.6728,2.6727,2.6827,2.6831,2.6836,0,0,0,0,0,0,0,0,0,0,0,0,0,2.6449,2.6453,2.6645,2.6646,2.6647,2.6742,2.6743,2.6744,2.6732,2.673,2.6728,2.6726,2.6826,2.6831,2.6836,0,0,0,0,0,0,0,0,0,0,0,0,0,2.6539,2.6454,2.6645,2.6652,2.6654,2.6741,2.6743,2.6745,2.6732,2.673,2.6727,2.6725,2.6824,2.683,2.6837,2.6923,0,0,2.6856,2.6858,0,0,0,0,0,0,0,0,2.6534,2.6546,2.665,2.6652,2.6654,2.6722,2.6711,2.6805,2.6733,2.6702,2.6727,2.6724,2.6794,2.6803,2.6826,2.6928,2.6932,2.6856,2.686,2.6863,2.6865,0,0,0,0,0,0,0,2.6528,2.6542,2.6683,2.6651,2.6654,2.6651,2.6661,2.6729,2.6761,2.6705,2.6704,2.6716,2.6795,2.682,2.6829,2.6934,2.6856,2.6862,2.6866,2.6868,2.711,2.7112,0,0,0,0,0,0,2.6519,2.6537,2.668,2.6686,2.6587,2.6656,2.6668,2.6703,2.676,2.6766,2.6718,2.6715,2.6811,2.6821,2.6832,2.6937,2.6863,2.6869,2.6872,2.7107,2.711,2.7113,0,0,0,0,0,0,2.6515,2.6532,2.6676,2.6611,2.6629,2.6662,2.6702,2.6706,2.6731,2.677,2.6775,2.6738,2.6809,2.6823,2.69,2.694,2.6871,2.6877,2.7104,2.7108,2.7112,2.7147,0,0,0,0,0,0,2.651,2.6531,2.6564,2.6612,2.6633,2.6743,2.6704,2.6709,2.6742,2.6739,2.679,2.6796,2.6809,2.6891,2.6906,2.6947,2.6882,2.7101,2.7106,2.7111,2.7142,2.7151,2.7159,0,0,0,0,0,2.6503,2.6571,2.6566,2.6583,2.6675,2.6745,2.6757,2.677,2.6745,2.6779,2.6803,2.6794,2.6933,2.6899,2.6916,2.696,2.7098,2.7104,2.711,2.7138,2.715,2.7159,0,0,0,0,0,0,2.6527,2.6577,2.6572,2.6658,2.6697,2.6743,2.6786,2.6781,2.6829,2.6824,2.6838,2.685,2.6928,2.6951,2.6913,2.7046,2.7012,2.7022,2.7028,2.7039,2.7047,2.704,2.6887,0,0,0,0,0,2.6542,2.6595,2.6635,2.6707,2.6727,2.6753,2.6784,2.679,2.6832,2.6848,2.6879,2.692,2.6972,2.7007,2.7057,2.7145,2.7156,2.7184,2.7192,2.7199,2.7207,2.7255,2.7267,2.7133,2.7133,2.7133,0,0,2.6575,2.6608,2.6641,2.6713,2.6744,2.6798,2.6767,2.6826,2.6866,2.6858,2.6932,2.6955,2.7002,2.7084,2.7122,2.7106,2.7246,2.7207,2.7212,2.7217,2.7262,2.7275,2.7286,2.7137,2.7136,2.7136,0,0,2.6661,2.6692,2.6754,2.6786,2.6833,2.685,2.6865,2.6911,2.6926,2.7,2.6995,2.7043,2.7133,2.7166,2.7195,2.7292,2.7286,2.7309,2.7353,2.7399,2.741,2.7419,2.7454,2.7466,2.7317,2.7317,2.7317,0,2.6695,2.6776,2.6787,2.6846,2.6878,2.6871,2.6935,2.6965,2.7027,2.7049,2.703,2.7143,2.7174,2.7263,2.7287,2.7311,2.7328,2.7303,2.7408,2.7417,2.7426,2.7459,2.7472,2.7319,2.7319,2.7319,2.7318,0,2.6815,2.6871,2.6916,2.6975,2.7011,2.7072,2.7093,2.7128,2.7131,2.7149,2.7225,2.7262,2.7319,2.7341,2.7345,2.7431,2.742,2.7404,2.7371,2.7441,2.7472,2.7485,2.7323,2.7322,2.7321,2.732,0,0,2.6921,2.6984,2.7,2.7026,2.7077,2.7121,2.7181,2.7236,2.7267,2.7309,2.736,2.7436,2.7421,2.7454,2.7461,2.7502,2.7575,2.7481,2.7482,2.7497,2.7672,2.7684,2.7698,2.7571,2.7574,2.7576,2.7668,0,2.7012,2.7118,2.7129,2.7224,2.7275,2.7269,2.7322,2.7359,2.7377,2.7424,2.7444,2.7498,2.7475,2.7495,2.7534,2.7558,2.7611,2.7552,2.7619,2.7621,2.7607,2.7714,2.7727,2.7813,2.7681,2.7683,2.7684,0,2.7132,2.7177,2.7277,2.7319,2.7341,2.7388,2.7439,2.7484,2.7526,2.7536,2.7572,2.7573,2.7635,2.7599,2.7684,2.7644,2.7672,2.7687,2.7691,2.7698,2.7657,2.7724,2.784,2.7853,2.7704,2.7702,2.7701,0,2.7198,2.7284,2.7354,2.7377,2.7429,2.7462,2.7485,2.7524,2.7556,2.7601,2.7622,2.7674,2.7702,2.7742,2.7757,2.773,2.7842,2.7807,2.7852,2.7852,2.7876,2.7875,2.7999,2.7895,2.7894,2.7894,2.7894,0,2.7299,2.736,2.7384,2.7428,2.7496,2.7508,2.7575,2.7597,2.7631,2.7679,2.7677,2.7722,2.7739,2.7786,2.7799,2.7867,2.788,2.789,2.7893,2.7891,2.7889,2.7909,2.7904,2.7898,2.7897,2.7896,2.7896,0,2.7384,2.7403,2.748,2.7522,2.7534,2.7582,2.7619,2.766,2.7678,2.7738,2.7753,2.778,2.7836,2.7855,2.7922,2.7931,2.801,2.8008,2.7996,2.7996,2.8041,2.8036,2.8182,2.8201,2.8084,2.8086,2.8086,0,2.7447,2.7494,2.7541,2.7572,2.7596,2.7647,2.7679,2.7693,2.7727,2.7777,2.7813,2.7867,2.7912,2.8001,2.8027,2.8079,2.8078,2.8125,2.8085,2.8081,2.8078,2.8075,2.8079,2.8133,2.8134,2.8135,2.8136,0,2.7556,2.7563,2.761,2.766,2.7698,2.7738,2.7777,2.7803,2.7822,2.786,2.7917,2.7951,2.802,2.8074,2.8126,2.815,2.8146,2.8148,2.8161,2.8159,2.815,2.8155,2.8016,2.8144,2.8144,2.8143,2.8142,2.8142,2.7632,2.7673,2.7712,2.7764,2.7794,2.783,2.7871,2.7893,2.794,2.7997,2.8002,2.8062,2.8102,2.8172,2.8198,2.8246,2.8232,2.8252,2.8257,2.8261,2.8264,2.8142,2.8255,2.8255,2.8255,2.8255,2.8255,0,2.7741,2.7765,2.7813,2.7867,2.7907,2.7899,2.7941,2.7976,2.8029,2.8066,2.811,2.8174,2.8227,2.8256,2.8309,2.8341,2.8341,2.8355,2.8352,2.8358,2.8273,2.8256,2.8354,2.8354,2.8354,2.8354,2.8354,2.8354,2.7802,2.787,2.7882,2.7965,2.7989,2.8048,2.8073,2.8106,2.8135,2.8207,2.825,2.8269,2.8303,2.8358,2.8406,2.8413,2.8432,2.8448,2.8454,2.8374,2.8364,2.8354,2.8338,2.8452,2.8452,2.8534,2.8535,2.8536]}]]